OH5GWF-1 Weather Reports


Display with metric or nautical units.
time (UTC)temp
F
wind
direction
speed
MPH
gust
MPH
rain 1hr
in
rain 24hr
in
rain mn
in
humidity
%
barometer
mb
20260505031305 43 54 0.0 2.0 0.00 0.10 0.02 88 1000.6
20260505030604 42 0 1.0 2.0 0.00 0.10 0.02 88 1000.6
20260505025902 42 349 1.0 3.0 0.00 0.10 0.02 88 1000.6
20260505025212 42 333 1.0 2.0 0.00 0.10 0.02 88 1000.6
20260505024510 42 25 0.0 1.0 0.00 0.10 0.02 88 1000.5
20260505023808 42 340 1.0 1.0 0.00 0.10 0.02 88 1000.6
20260505023107 42 342 0.0 1.0 0.00 0.10 0.02 88 1000.6
20260505022406 42 332 1.0 1.0 0.00 0.10 0.02 88 1000.7
20260505021703 42 0 1.0 3.0 0.00 0.10 0.02 88 1000.6
20260505021013 42 357 1.0 1.0 0.00 0.10 0.02 88 1000.7
20260505020311 42 348 0.0 2.0 0.00 0.10 0.02 88 1000.7
20260505015610 42 0 1.0 2.0 0.00 0.10 0.02 88 1000.8
20260505014908 42 0 1.0 2.0 0.00 0.10 0.02 88 1000.8
20260505014204 41 1 0.0 1.0 0.00 0.10 0.02 88 1000.8
20260505013503 41 0 0.0 0.0 0.00 0.10 0.02 88 1000.8
20260505012801 41 359 1.0 2.0 0.00 0.10 0.02 88 1000.8
20260505012111 41 0 0.0 2.0 0.00 0.10 0.02 88 1000.8
20260505011409 41 7 0.0 0.0 0.02 0.10 0.02 88 1000.7
20260505010705 41 11 0.0 0.0 0.02 0.10 0.02 88 1000.7
20260505010005 41 8 0.0 1.0 0.02 0.10 0.02 88 1000.6
20260505005303 41 6 0.0 0.0 0.02 0.10 0.02 88 1000.7
20260505004612 42 1 0.0 1.0 0.02 0.10 0.02 88 1000.7
20260505003911 42 5 1.0 2.0 0.02 0.10 0.02 88 1000.7
20260505003208 42 13 0.0 0.0 0.02 0.10 0.02 88 1000.6
20260505002506 42 20 0.0 0.0 0.02 0.10 0.02 88 1000.6
20260505001804 43 15 0.0 0.0 0.02 0.10 0.02 88 1000.6
20260505001102 43 15 0.0 2.0 0.00 0.08 0.00 88 1000.6
20260505000413 43 15 0.0 1.0 0.00 0.08 0.00 88 1000.8
20260504235709 43 3 0.0 3.0 0.00 0.08 0.00 88 1000.8
20260504235006 43 3 0.0 2.0 0.00 0.08 0.00 88 1000.9
20260504234303 43 16 0.0 1.0 0.00 0.08 0.00 88 1001.2
20260504233612 43 9 1.0 2.0 0.00 0.08 0.00 88 1001.2
20260504232912 43 18 0.0 2.0 0.00 0.08 0.00 88 1001.3
20260504232209 43 11 0.0 0.0 0.00 0.08 0.00 88 1001.1
20260504231507 43 7 0.0 1.0 0.00 0.08 0.00 88 1001.1
20260504230806 43 14 0.0 0.0 0.00 0.08 0.00 88 1001.2
20260504230103 43 22 0.0 0.0 0.00 0.08 0.00 88 1001.0
20260504225413 43 11 1.0 3.0 0.00 0.08 0.00 88 1001.1
20260504224711 44 0 0.0 0.0 0.00 0.08 0.00 88 1001.0
20260504224009 44 10 1.0 2.0 0.00 0.08 0.00 88 1001.1
20260504223307 44 14 0.0 3.0 0.00 0.08 0.00 88 1001.1
20260504222606 43 22 0.0 2.0 0.00 0.08 0.00 88 1001.1
20260504221904 43 20 1.0 2.0 0.00 0.08 0.00 88 1001.1
20260504221202 42 2 1.0 1.0 0.00 0.08 0.00 88 1000.9
20260504220513 41 22 2.0 3.0 0.00 0.08 0.00 88 1000.8
20260504215811 41 22 0.0 0.0 0.00 0.08 0.08 88 1001.0
20260504215107 40 17 0.0 0.0 0.00 0.08 0.08 88 1001.0
20260504214405 40 12 1.0 2.0 0.00 0.08 0.08 88 1000.9
20260504213704 39 22 0.0 0.0 0.00 0.08 0.08 88 1000.9
20260504213004 40 22 0.0 0.0 0.00 0.08 0.08 88 1000.8
20260504212304 40 22 0.0 0.0 0.00 0.08 0.08 88 1000.9
20260504211612 40 22 0.0 1.0 0.00 0.08 0.08 88 1000.9
20260504210911 40 22 0.0 0.0 0.00 0.08 0.08 88 1000.9
20260504210209 40 22 0.0 0.0 0.00 0.08 0.08 88 1000.9
20260504205508 40 22 0.0 0.0 0.00 0.08 0.08 88 1000.9
20260504204806 40 22 0.0 0.0 0.00 0.08 0.08 88 1001.0
20260504204103 40 22 0.0 0.0 0.00 0.08 0.08 88 1001.1
20260504203402 40 22 0.0 0.0 0.00 0.08 0.08 88 1001.0
20260504202713 40 22 0.0 0.0 0.00 0.08 0.08 88 1000.9
20260504202011 40 22 0.0 1.0 0.00 0.08 0.08 88 1000.8
20260504201309 40 22 0.0 0.0 0.00 0.08 0.08 88 1000.8
20260504200606 41 22 0.0 0.0 0.00 0.08 0.08 88 1000.8
20260504195903 41 22 1.0 1.0 0.00 0.08 0.08 89 1000.7
20260504195202 41 22 0.0 1.0 0.00 0.08 0.08 89 1000.7
20260504194511 41 22 0.0 1.0 0.00 0.08 0.08 89 1000.7
20260504193809 41 18 0.0 0.0 0.00 0.08 0.08 89 1000.6
20260504193106 42 22 1.0 0.0 0.00 0.08 0.08 89 1000.7
20260504192404 42 22 0.0 1.0 0.00 0.08 0.08 88 1000.6
20260504191702 42 22 0.0 1.0 0.00 0.08 0.08 88 1000.8
20260504191001 42 22 0.0 0.0 0.00 0.08 0.08 88 1000.7
20260504190312 42 22 0.0 0.0 0.00 0.08 0.08 88 1000.7
20260504185611 43 22 0.0 2.0 0.00 0.08 0.08 88 1000.7
20260504184910 43 22 0.0 0.0 0.00 0.08 0.08 88 1000.7
20260504184208 44 22 0.0 1.0 0.00 0.08 0.08 87 1000.6
20260504183505 44 22 0.0 0.0 0.00 0.08 0.08 87 1000.6
20260504182803 45 22 0.0 0.0 0.00 0.08 0.08 86 1000.5
20260504182112 46 22 0.0 0.0 0.00 0.08 0.08 86 1000.4
20260504181410 47 22 0.0 0.0 0.00 0.08 0.08 86 1000.5
20260504180707 47 22 0.0 1.0 0.00 0.08 0.08 86 1000.5
20260504180005 47 22 0.0 0.0 0.00 0.08 0.08 86 1000.4
20260504175304 47 22 0.0 0.0 0.00 0.08 0.08 86 1000.2
20260504174614 47 22 0.0 0.0 0.00 0.08 0.08 86 1000.2
20260504173910 47 22 0.0 0.0 0.00 0.08 0.08 86 1000.1
20260504173208 46 22 0.0 0.0 0.00 0.08 0.08 86 1000.2
20260504172505 47 22 0.0 0.0 0.00 0.08 0.08 85 1000.1
20260504171803 47 22 0.0 0.0 0.00 0.08 0.08 85 1000.0
20260504171113 48 22 0.0 0.0 0.00 0.08 0.08 84 1000.0
20260504170410 49 22 0.0 0.0 0.00 0.08 0.08 83 1000.0
20260504160105 53 22 0.0 0.0 0.00 0.08 0.08 79 999.9
20260504151149 54 22 1.0 2.0 0.00 0.08 0.08 81 1000.3
20260504150457 53 22 0.0 0.0 0.00 0.08 0.08 80 1000.4
20260504140853 55 22 0.0 1.0 0.00 0.08 0.08 80 1000.5
20260504140151 56 22 0.0 1.0 0.00 0.08 0.08 82 1000.6
20260504130556 53 359 0.0 1.0 0.00 0.08 0.08 86 1001.1
20260504120250 50 252 0.0 1.0 0.06 0.08 0.08 87 1001.7
20260504110659 51 248 0.0 0.0 0.04 0.04 0.04 83 1002.1
20260504100352 59 248 0.0 1.0 0.00 0.00 0.00 65 1002.6
20260504081856 59 257 0.0 3.0 0.00 0.00 0.00 65 1003.3
20260504081153 60 282 0.0 1.0 0.00 0.00 0.00 64 1003.3
20260504080450 61 248 1.0 1.0 0.00 0.00 0.00 62 1003.2
20260504070154 58 330 1.0 1.0 0.00 0.00 0.00 72 1004.0
20260504050257 50 248 0.0 1.0 0.00 0.00 0.00 85 1005.0
20260504045554 49 248 0.0 0.0 0.00 0.00 0.00 85 1005.2
20260504044853 49 248 0.0 0.0 0.00 0.00 0.00 85 1005.3
20260504044152 49 248 0.0 0.0 0.00 0.00 0.00 86 1005.4
20260504043449 48 248 0.0 1.0 0.00 0.00 0.00 86 1005.4
20260504042759 48 248 0.0 0.0 0.00 0.00 0.00 86 1005.5
20260504042055 47 248 0.0 0.0 0.00 0.00 0.00 87 1005.5
20260504041353 47 248 0.0 0.0 0.00 0.00 0.00 87 1005.6
20260504040651 46 248 0.0 0.0 0.00 0.00 0.00 87 1005.6
20260504040000 46 248 1.0 1.0 0.00 0.00 0.00 88 1005.8
20260504035258 45 248 1.0 1.0 0.00 0.00 0.00 88 1005.8
20260504034554 45 248 0.0 2.0 0.00 0.00 0.00 87 1005.8
20260504033852 45 248 0.0 1.0 0.00 0.00 0.00 88 1005.8
20260504033150 44 248 1.0 2.0 0.00 0.00 0.00 88 1005.8
20260504032458 44 248 0.0 1.0 0.00 0.00 0.00 88 1005.9
20260504031756 44 248 0.0 0.0 0.00 0.00 0.00 88 1005.8